Location: *
(50.5492°N, 7.7469°E)
Time: 07:28:55
(UTC+00:00)

STARLINK-39 - Pass Details

Date: 21 October 2019
Orbit: 548 x 551 km, 53.0° (Epoch: 19 November)

Event Time Altitude Azimuth Distance (km) Brightness Sun altitude
Rises 17:59:24 0° 277° (W) 2,719 9.0 -15.6°
Reaches altitude 10° 18:01:39 10° 281° (W) 1,825 7.6 -15.9°
Maximum altitude 18:05:46 60° 2° (N) 631 3.8 -16.6°
Enters shadow 18:07:26 33° 70° (ENE) 942 4.3 -16.8°
